Temp_Advection
nan nan nan nan nan nan nan nan nan nan nan nan nan nan nan nan nan nan nan nan nan nan nan nan nan nan nan nan nan nan nan nan nan nan nan nan nan nan nan nan nan nan nan nan nan nan nan nan nan nan nan nan nan nan nan nan nan nan nan nan nan nan nan nan nan nan nan nan nan
nan -1 -1 -1 -1 -0 -0 -0 -0 0 0 0 0 0 0 0 -0 -0 -0 -0 -0 -0 -0 -0 -0 -0 -0 0 0 0 0 0 0 0 0 0 0 0 0 1 1 1 1 1 1 1 1 1 1 1 0 0 -0 -0 -0 0 1 1 1 0 1 1 1 0 -0 0 1 2 nan
nan -1 -1 -1 -1 -0 -0 -1 -0 -0 0 0 0 0 0 0 0 -0 -0 -0 -0 -0 -0 -0 -0 -0 0 0 0 0 0 0 0 0 0 0 0 0 0 0 0 1 1 1 1 1 1 2 1 1 0 0 -0 -0 -0 0 1 1 0 1 1 1 1 -0 -0 1 1 1 nan
nan -1 -1 -0 -0 -0 -0 -0 -0 -0 -0 -0 0 0 0 0 0 -0 -0 -0 -0 -0 -0 -0 -0 -0 -0 -0 -0 0 0 0 -0 -0 -0 0 0 0 0 0 0 0 0 1 1 1 2 2 2 1 0 0 -0 -0 0 1 1 1 0 1 1 1 0 0 0 1 1 1 nan
nan -1 -1 -0 -0 -0 -0 -0 -0 -0 -0 -0 -0 -0 -0 0 0 -0 -0 -0 -0 -0 -0 -0 -0 -0 -0 -0 -0 -0 -0 0 0 -0 -0 -0 0 0 0 0 0 0 0 0 0 1 1 2 1 1 0 0 0 0 1 2 2 1 1 1 1 1 1 1 1 1 1 1 nan
nan -0 -0 -0 -0 -0 -0 -0 -0 -0 -0 -0 -0 -0 -0 -0 -0 -0 -0 -0 -0 -0 -0 0 -0 -0 0 -0 -0 -0 -0 0 0 0 -0 -0 0 0 0 0 0 0 0 0 0 1 1 1 1 1 1 0 0 0 1 2 3 2 1 1 1 2 2 1 1 2 1 1 nan
nan -0 -0 -0 -0 -0 -0 -0 -0 -0 -0 -0 -1 -1 -1 -0 -0 -0 -0 -0 -0 -0 0 0 -0 0 0 -0 -0 -0 -0 0 0 0 0 0 0 0 0 0 0 0 0 0 0 0 1 1 1 0 0 0 -0 0 1 2 2 2 1 1 2 2 2 2 2 2 2 1 nan
nan -0 -0 -0 -0 -0 -0 -0 -0 -0 -0 -0 -1 -1 -1 -1 -1 -0 -0 -0 -0 0 0 0 0 0 0 -0 -0 -0 0 0 0 0 0 0 0 0 0 0 0 0 0 0 0 0 0 0 0 -0 0 -0 -0 -0 0 1 1 1 1 1 2 2 2 2 2 2 2 2 nan
nan -0 -0 -0 -0 -0 -0 -0 -0 -0 -0 -0 -0 -1 -1 -1 -1 -1 -1 -0 -0 -0 0 0 0 0 0 -0 -0 0 0 0 0 0 0 0 0 0 0 0 0 0 0 0 0 0 0 0 -0 -0 -0 -0 -0 -0 0 1 1 0 0 0 1 2 2 2 2 2 2 2 nan
nan 0 0 -0 -0 0 0 0 0 -0 -0 -0 -1 -1 -1 -1 -1 -1 -1 -1 -1 -0 -0 0 0 0 0 0 0 0 0 0 0 0 0 -0 0 0 0 0 0 0 0 1 1 1 0 0 -0 -0 -0 -0 -0 -0 0 0 0 -0 0 0 0 1 1 1 2 2 2 2 nan
nan -0 -0 -0 -0 0 0 0 0 0 -0 -0 -1 -1 -1 -1 -1 -1 -1 -1 -1 -1 -0 -0 0 0 0 0 0 0 0 0 0 0 0 0 0 0 0 0 0 0 1 1 1 1 0 0 -0 -0 -0 -0 -0 -0 0 0 0 -0 -0 0 0 0 1 1 2 2 2 2 nan
nan -1 -1 -1 -0 -0 -0 0 0 1 1 0 -0 -1 -1 -1 -1 -1 -1 -1 -1 -0 -0 -0 -0 0 0 0 0 0 0 0 0 0 0 0 0 0 0 0 0 0 0 1 1 1 0 0 0 0 0 0 0 0 0 0 0 -0 -0 0 0 -0 -0 1 2 2 2 2 nan
nan -0 -0 -1 -1 -1 -1 -0 0 0 1 1 1 0 -0 -1 -1 -1 -1 -1 -1 -1 -0 -0 -0 -0 0 0 0 0 0 0 0 0 0 0 0 0 0 0 0 0 0 1 1 1 0 0 0 0 0 0 0 0 0 0 0 -0 -0 0 0 -0 -0 1 2 3 3 2 nan
nan 0 0 -0 -0 -1 -1 -1 -1 -0 0 1 1 1 1 -0 -1 -1 -1 -1 -1 -1 -1 -0 -0 -0 -0 0 0 0 0 0 0 0 0 0 0 0 0 0 0 0 0 0 1 1 0 0 0 0 0 1 1 1 1 1 0 0 -0 -0 -0 -0 -0 0 2 3 3 2 nan
nan 1 1 1 0 -0 -0 -1 -1 -1 -1 -0 1 1 1 1 0 -0 -1 -1 -1 -1 -1 -1 -0 -0 -0 -0 0 0 1 0 0 0 0 0 0 0 0 0 0 0 0 0 0 0 0 0 0 0 0 0 1 1 1 1 1 0 0 -0 -0 -0 -0 0 1 2 3 2 nan
nan 1 1 1 1 0 0 -0 -1 -1 -1 -1 -0 0 1 1 1 1 0 -1 -1 -1 -1 -1 -1 -0 -0 -0 -0 0 0 1 0 0 0 0 0 0 0 0 0 -0 0 0 0 0 -0 -0 -0 0 0 0 1 1 1 1 1 1 0 0 -0 -0 -0 0 1 2 2 2 nan
nan 0 0 1 1 1 0 0 0 -0 -1 -1 -1 -1 -0 1 1 2 1 1 -0 -1 -1 -1 -1 -1 -0 -0 -0 -0 0 0 0 0 0 0 0 0 0 0 -0 -0 0 0 0 0 0 -0 -0 -0 -0 0 0 1 1 1 1 1 1 1 0 -0 -0 0 0 1 2 2 nan
nan -1 -0 -0 -0 0 0 0 0 -0 -0 -0 -1 -1 -1 -0 0 1 1 2 1 0 -0 -1 -1 -1 -1 -0 0 0 -0 0 0 0 0 0 0 0 0 0 0 0 0 -0 -0 -0 -0 -0 -0 -0 -0 -0 -0 0 1 1 1 1 1 1 1 0 0 0 1 1 1 1 nan
nan -1 -1 -1 -1 -1 -0 -0 -0 -0 -0 -0 -0 -1 -1 -1 -1 -0 0 1 1 1 1 0 -0 -0 -1 -0 0 0 0 0 0 0 0 0 0 0 0 0 1 0 0 0 0 -0 -0 -0 -0 -0 -0 -0 -0 -0 0 0 0 0 1 1 1 0 0 0 0 1 1 1 nan
nan -1 -1 -1 -1 -1 -1 -0 -0 -0 -0 -0 -0 -0 -0 -1 -1 -1 -1 -0 1 1 1 1 0 0 0 0 0 0 0 0 0 0 1 0 0 0 0 0 1 1 1 0 0 0 0 0 0 0 -0 -0 -0 -0 -0 -0 -0 -0 0 0 0 0 1 1 1 1 1 1 nan
nan -1 -1 -1 -1 -0 -0 -0 -0 -0 -0 -0 0 0 0 -0 -0 -1 -1 -0 -0 0 1 1 1 1 0 0 0 0 1 0 0 0 1 1 1 1 1 0 0 0 0 0 -0 0 0 1 1 1 1 0 0 -0 -0 -0 -0 -0 -0 -0 -0 0 1 1 1 1 1 1 nan
nan -0 -0 -0 -0 -0 -0 -0 -0 -0 0 0 0 0 0 0 0 0 0 -0 -0 -0 -0 0 0 1 1 1 1 1 1 1 0 0 0 0 1 1 2 2 1 1 0 -0 -1 -1 -0 0 1 2 2 1 1 0 -0 -0 -0 -1 -1 -1 -1 -0 0 1 1 1 1 1 nan
nan -0 -0 -0 -0 -0 -0 -0 -0 -0 -0 -0 0 0 0 0 0 0 0 0 0 0 0 0 0 0 0 1 1 1 1 1 1 1 0 -0 -0 0 2 2 2 2 1 0 -0 -1 -1 -0 1 2 2 2 1 1 0 0 -0 -1 -1 -1 -1 -0 0 1 1 2 2 1 nan
nan -0 -0 -0 -0 -0 -0 -0 -0 -0 -0 -0 -0 -0 -0 -0 -0 0 0 0 0 1 1 1 0 1 0 0 0 1 1 1 1 1 1 1 0 -0 0 1 2 2 2 1 1 0 -0 -0 1 1 2 2 2 1 1 1 0 -0 -1 -1 -1 -1 -0 1 1 2 2 2 nan
nan -0 -0 -0 -0 -0 -0 -0 -0 -1 -1 -1 -1 -0 -0 -0 -0 -0 -0 -0 -0 0 0 0 1 0 1 0 0 0 1 1 1 1 1 1 1 0 0 -0 0 1 1 2 2 1 1 0 0 1 1 2 2 2 2 2 1 0 -0 -1 -1 -1 -1 0 1 2 2 2 nan
nan -0 -0 -0 -0 -0 -0 -0 -0 -1 -1 -1 -1 -1 -0 -0 -0 -0 -0 -0 -0 -0 -0 -0 0 0 0 0 0 0 0 1 1 1 1 0 0 0 0 0 0 1 1 1 1 1 1 0 0 0 0 1 1 1 2 2 1 1 0 -0 -1 -1 -1 -0 1 2 2 1 nan
nan -0 -0 -0 -0 -0 -0 -0 -0 -0 -1 -1 -1 -1 -1 -0 -0 -0 -0 0 0 0 -0 -0 -0 -0 -0 -0 -0 -0 0 0 1 0 0 -0 -1 -1 -0 0 0 1 1 1 1 0 1 1 1 0 -0 -0 0 1 1 1 0 -0 -0 -1 -2 -1 -1 0 1 2 1 0 nan
nan -0 -0 -1 -1 -1 -1 -0 -1 -1 -1 -1 -1 -1 -1 -1 -0 -0 -0 0 0 0 0 0 0 0 -0 -0 -0 -0 0 0 1 0 0 -0 -1 -1 -1 -1 -0 0 1 1 1 0 1 1 1 1 1 0 0 -0 -0 -0 -0 -1 -1 -2 -2 -2 -1 0 1 2 1 -0 nan
nan -1 -1 -1 -1 -1 -1 -1 -1 -1 -1 -1 -1 -1 -1 -1 -1 -1 -1 -0 -0 0 0 -0 0 0 0 -0 -0 -0 0 0 0 0 0 -0 -1 -1 -1 -1 -1 -0 0 1 1 1 1 1 1 1 1 1 0 -0 -1 -1 -0 -0 0 -1 -2 -2 -0 1 1 -0 -0 -0 nan
nan -1 -1 -1 -1 -1 -1 -1 -1 -1 -1 -1 -1 -1 -1 -1 -1 -1 -1 -1 -1 -1 -1 -1 -1 -1 -0 -0 -0 -0 -0 -0 0 0 0 -0 -1 -1 -1 -1 -1 -1 -0 1 1 1 1 1 1 1 1 1 1 0 -0 -0 -0 0 1 1 0 -0 -0 -0 -0 -0 0 0 nan
nan -0 -1 -1 -1 -1 -1 -1 -1 -1 -1 -1 -2 -2 -2 -2 -2 -2 -2 -2 -2 -2 -1 -1 -2 -2 -1 -0 -0 -0 -1 -0 -0 0 0 -1 -1 -2 -1 -1 -1 -1 -0 0 0 0 1 1 1 1 1 1 1 1 0 0 1 1 1 1 0 0 0 -0 0 0 0 0 nan
nan -0 -0 -1 -1 -1 -1 -1 -1 -1 -1 -2 -2 -2 -2 -2 -2 -2 -2 -2 -2 -2 -2 -2 -2 -2 -2 -1 -1 -1 -1 -1 -0 -0 0 -0 -1 -2 -2 -2 -1 -1 -0 0 0 0 0 0 1 1 1 1 1 0 1 1 1 1 0 0 -0 -0 -0 0 1 1 1 0 nan
nan -0 -1 -1 -1 -1 -1 -1 -1 -1 -2 -2 -2 -2 -2 -2 -2 -2 -1 -1 -1 -2 -2 -2 -2 -2 -2 -2 -2 -1 -1 -1 -1 -0 -0 -0 -0 -1 -2 -2 -1 -1 -0 0 0 0 0 0 1 1 1 0 0 0 1 1 0 0 0 -0 -0 -0 0 1 1 1 0 -0 nan
nan -1 -1 -1 -2 -2 -2 -2 -1 -2 -2 -2 -2 -1 -1 -1 -2 -2 -1 -1 -1 -1 -1 -1 -1 -1 -1 -1 -1 -1 -1 -1 -1 -0 -0 0 -0 -1 -1 -1 -1 -1 -0 -0 0 0 0 0 1 1 1 1 1 1 1 1 1 0 0 0 -0 -0 0 0 0 -0 -0 -0 nan
nan -1 -2 -2 -2 -2 -2 -2 -2 -2 -2 -2 -2 -1 -1 -1 -1 -1 -1 -1 -1 -1 -1 -1 -1 -0 -0 -0 0 -0 -1 -1 -1 -0 -0 0 -0 -0 -1 -1 -1 -0 -0 0 0 -0 0 0 0 1 1 1 1 1 1 1 1 0 0 0 0 -0 -0 0 0 -0 -0 -0 nan
nan -1 -2 -2 -2 -2 -2 -2 -2 -2 -1 -1 -2 -2 -1 -1 -1 -0 -1 -1 -1 -1 -1 -1 -1 -0 -0 -0 0 0 0 -0 -0 -0 -0 -0 -0 -0 -1 -1 -1 -1 0 0 0 -0 -0 -0 0 0 1 1 1 1 1 1 1 0 0 0 1 0 -0 -0 -0 -1 -0 -0 nan
nan -1 -1 -2 -2 -2 -2 -2 -1 -2 -1 -1 -1 -1 -1 -1 -1 -1 -0 -0 -1 -2 -2 -2 -2 -1 -1 -0 -0 -0 0 1 0 -0 -0 -0 -0 -0 -1 -1 -1 -1 -0 0 0 -0 -0 -0 -0 0 1 1 1 1 1 1 1 0 0 0 1 0 -0 -1 -0 -0 -0 -0 nan
nan -0 -1 -1 -2 -2 -1 -1 -1 -1 -2 -1 -1 -1 -1 -1 -1 -1 -0 -0 -1 -2 -3 -3 -2 -2 -1 -1 -1 -1 -0 1 1 1 -0 -0 0 -0 -0 -1 -1 -1 -0 0 0 -0 -0 -0 -0 0 1 1 1 1 1 1 1 0 1 1 1 0 -1 -1 -0 -0 -1 -0 nan
nan -0 -0 -1 -1 -1 -1 -1 -1 -1 -1 -1 -1 -1 -1 -1 -1 -1 -1 -0 -0 -1 -2 -3 -3 -2 -1 -1 -1 -2 -2 -0 1 1 1 -0 0 0 0 -1 -1 -1 -0 0 0 0 -0 -0 -0 0 1 1 1 1 1 1 0 0 1 1 1 0 -1 -1 -1 -1 -1 -1 nan
nan 0 0 -0 -1 -1 -1 -1 -1 -1 -1 -1 -1 -1 -1 -1 -1 -1 -1 -0 -0 -0 -1 -2 -2 -2 -1 -1 -1 -2 -3 -2 -0 1 1 0 0 0 0 0 -1 -1 -0 0 0 0 0 -0 -0 0 1 1 1 1 1 1 1 0 0 0 0 0 -0 -0 -0 -1 -1 -2 nan
nan nan nan nan nan nan nan nan nan nan nan nan nan nan nan nan nan nan nan nan nan nan nan nan nan nan nan nan nan nan nan nan nan nan nan nan nan nan nan nan nan nan nan nan nan nan nan nan nan nan nan nan nan nan nan nan nan nan nan nan nan nan nan nan nan nan nan nan nan
Wind_Speed
27 26 26 26 26 26 26 26 26 27 27 27 27 27 27 27 27 27 26 26 25 25 24 24 23 23 22 22 22 23 23 23 23 24 24 24 24 23 23 23 23 23 23 23 23 23 23 24 25 26 27 27 27 28 28 28 29 30 31 31 32 33 33 34 35 35 36 36 37
26 26 26 26 26 26 26 26 27 27 27 28 28 27 27 27 27 27 27 26 26 26 25 25 24 23 22 22 22 22 23 23 23 23 24 24 24 23 23 23 23 23 23 23 23 23 23 24 25 26 26 27 27 28 28 28 29 30 31 32 33 34 35 35 36 36 36 37 38
25 25 25 25 25 25 26 26 26 27 27 28 28 28 28 27 27 27 27 27 26 26 25 25 24 23 22 22 22 22 22 23 23 23 23 23 23 23 23 23 22 22 22 22 22 22 22 23 24 25 26 27 27 27 28 28 29 30 31 32 33 34 35 36 36 36 37 38 38
23 23 24 24 24 25 26 26 26 27 27 28 28 28 28 28 28 27 27 27 26 26 25 24 23 22 21 21 21 21 22 22 23 23 23 23 23 22 22 22 21 21 21 21 20 21 21 22 23 24 25 26 26 27 27 27 28 30 31 32 33 34 35 36 36 37 37 38 38
23 23 23 24 24 25 25 26 26 27 27 28 28 29 29 28 28 28 27 27 26 25 25 24 23 22 21 21 21 21 21 22 22 23 23 23 22 21 21 21 20 20 19 19 19 19 20 21 22 24 25 25 26 26 26 27 28 30 31 32 33 34 35 36 36 37 37 38 39
23 23 24 24 25 26 26 27 27 27 28 28 28 29 29 29 29 29 28 27 27 26 25 24 23 22 21 21 21 21 22 22 22 22 22 22 22 21 20 19 19 18 18 18 18 18 19 21 22 23 24 25 25 26 26 26 28 29 31 32 33 33 34 36 36 37 38 38 39
24 24 24 25 25 26 27 28 28 28 29 29 29 29 29 29 29 29 29 29 28 26 25 24 23 23 22 22 22 22 22 22 22 22 22 22 21 20 20 19 18 18 17 17 18 18 19 20 22 23 23 24 25 25 26 26 28 29 30 32 32 33 34 35 36 37 38 38 39
25 25 25 25 25 26 28 29 30 30 30 30 30 30 30 30 30 30 30 30 29 28 27 26 25 24 24 23 23 23 23 23 23 22 22 22 21 21 20 19 19 19 18 18 18 19 20 21 22 23 23 24 24 25 26 26 28 29 30 31 32 33 34 35 36 36 37 38 39
27 27 27 26 26 27 28 29 30 32 32 32 31 31 30 30 31 31 31 31 30 30 29 28 27 26 26 25 25 24 24 24 23 23 23 23 22 22 21 21 21 20 20 20 20 20 21 22 23 23 23 24 25 25 26 27 28 29 30 31 32 33 33 34 35 36 37 38 39
30 30 29 28 28 28 28 29 30 32 33 33 33 32 32 32 32 32 32 32 31 31 31 30 29 28 28 27 27 26 25 25 25 24 24 24 24 24 23 23 23 22 22 22 22 22 23 23 24 24 24 25 25 26 27 27 29 30 31 31 32 33 34 34 35 36 37 38 39
33 32 32 31 31 30 29 29 30 31 32 33 33 33 33 33 33 33 33 33 33 32 32 31 31 30 30 29 29 28 27 27 26 26 26 26 26 25 25 25 24 24 24 23 23 23 24 25 25 25 26 26 27 27 28 29 29 30 31 32 32 33 34 35 35 36 37 38 39
34 34 33 33 33 32 31 30 30 30 31 32 33 34 34 34 34 34 34 34 34 34 33 33 32 32 32 31 31 30 29 29 28 28 28 27 27 27 26 26 26 26 25 25 25 25 26 26 26 27 27 27 28 28 29 30 30 31 32 33 33 34 35 35 36 36 37 37 38
34 33 33 33 33 33 33 32 32 31 31 31 32 33 34 35 35 35 36 36 36 36 35 34 34 34 33 33 32 32 31 30 30 30 29 29 28 28 28 28 27 27 27 27 27 27 27 28 28 28 29 29 29 30 30 31 31 32 33 34 34 35 36 36 36 37 37 37 38
33 33 32 32 33 33 34 34 34 33 32 32 32 32 33 34 35 36 37 38 38 38 37 36 35 35 35 34 34 33 33 32 32 31 31 30 30 29 29 29 29 29 29 29 29 29 29 30 30 30 31 31 31 31 31 32 32 33 34 35 35 36 37 37 37 37 37 38 38
32 32 32 32 32 32 33 34 34 34 34 33 33 32 32 33 34 36 37 38 39 40 39 38 37 36 36 36 35 35 34 34 33 33 32 32 31 31 30 30 30 30 30 30 31 31 31 31 32 32 33 33 33 33 33 33 34 34 35 36 36 37 37 38 38 38 38 39 39
32 32 32 32 31 32 32 33 33 34 34 34 34 33 32 32 33 34 36 38 39 40 41 40 39 38 37 37 37 37 36 36 35 34 34 34 33 32 32 31 31 31 32 32 32 33 33 33 34 34 35 35 35 35 35 36 36 36 37 37 37 37 38 38 38 38 39 40 40
32 32 32 32 32 32 32 32 32 33 34 34 34 34 34 33 33 33 34 36 38 40 41 41 40 39 39 38 38 38 38 38 38 37 36 36 35 35 34 34 34 34 34 34 35 35 35 36 36 36 37 37 37 38 38 38 38 38 39 39 39 38 38 38 38 39 39 40 41
32 32 32 32 32 32 31 31 32 32 33 34 34 34 34 34 34 34 34 34 36 37 39 40 40 40 40 40 40 40 40 40 40 40 40 39 38 38 38 37 37 37 37 37 38 38 38 38 38 38 39 39 39 39 39 39 40 40 41 41 41 40 40 39 38 39 40 40 41
31 31 31 31 31 31 31 31 31 31 32 33 33 34 34 35 35 35 35 35 35 36 37 39 40 41 41 41 41 41 41 41 42 42 43 42 42 42 41 41 41 40 40 40 41 41 41 41 41 41 41 40 40 40 40 40 41 42 43 43 43 42 41 40 39 39 40 40 41
30 30 30 30 30 31 31 31 31 31 31 31 32 33 34 34 35 36 36 36 36 36 37 38 39 41 42 42 42 42 43 43 43 44 44 44 45 45 45 44 44 43 43 43 43 43 43 43 43 43 42 41 40 39 39 40 42 43 45 45 45 44 43 41 40 39 40 40 41
29 29 30 30 30 31 31 31 32 32 32 32 31 32 32 33 34 35 36 36 37 37 37 38 39 40 41 42 43 43 44 44 44 45 45 46 46 47 47 47 46 45 44 44 43 43 43 44 44 43 43 41 39 38 39 41 43 45 46 46 46 45 43 42 41 40 40 40 40
29 29 30 30 31 32 32 33 33 33 33 33 33 32 32 32 32 33 34 35 36 37 38 39 40 41 42 42 43 44 45 45 45 46 46 47 48 48 49 49 49 48 46 45 43 43 42 43 43 43 42 41 40 40 41 43 45 46 47 46 46 45 44 43 42 41 40 40 39
29 30 31 32 33 33 34 35 35 36 36 36 35 35 34 33 33 32 32 33 34 36 37 39 40 41 42 43 44 45 46 47 48 48 48 49 50 50 51 51 52 51 50 49 47 45 43 42 41 41 40 40 41 42 44 45 46 47 46 46 45 45 44 44 43 42 41 40 39
30 31 32 33 35 35 36 37 37 38 38 38 38 38 37 37 36 35 34 33 33 34 35 36 38 40 42 43 44 45 46 47 48 48 49 49 50 51 52 53 54 54 55 55 54 51 48 45 42 41 41 41 43 45 46 47 47 46 45 45 44 45 45 45 45 44 42 41 39
32 33 34 36 36 37 38 38 39 39 39 40 40 40 39 39 39 38 37 36 36 35 35 35 36 38 39 41 43 44 45 46 47 47 48 48 49 51 52 53 53 53 54 55 56 55 53 50 47 45 45 45 47 49 49 49 47 46 44 44 44 45 46 47 47 46 44 41 39
34 35 37 38 39 39 40 40 41 41 41 41 41 41 41 41 40 40 40 39 39 38 37 37 37 37 38 40 41 42 43 45 45 46 47 48 48 49 50 50 50 51 51 52 53 53 52 51 50 49 49 49 50 50 50 48 46 44 43 44 44 45 46 47 47 46 44 41 39
36 37 39 40 41 41 42 42 42 43 43 42 42 42 42 42 41 41 41 41 40 40 39 39 38 39 39 40 40 41 42 43 44 44 45 46 46 46 47 47 48 48 48 49 49 49 49 49 48 48 48 47 46 46 45 44 43 42 42 43 44 45 47 47 47 45 43 41 39
38 40 41 42 43 43 44 44 44 44 44 44 44 43 43 43 43 42 42 42 41 41 41 40 40 40 40 41 41 41 42 42 43 43 43 44 44 44 44 45 45 45 45 45 45 45 45 45 44 43 41 40 39 38 38 38 39 39 40 41 43 45 46 47 46 44 42 41 40
40 42 43 44 45 45 45 45 45 45 45 45 45 45 44 44 44 43 43 43 42 42 42 41 42 41 42 42 42 42 42 43 43 43 43 43 43 43 43 43 43 43 43 42 41 41 41 40 38 36 34 33 33 33 34 35 36 38 39 40 42 43 45 45 44 43 42 42 41
42 44 45 46 46 46 46 46 46 46 46 46 45 45 45 44 44 44 43 43 43 42 42 42 42 42 42 42 43 43 43 43 43 43 43 43 43 42 42 41 41 40 39 38 36 35 34 33 32 31 30 30 31 32 33 34 36 37 38 39 40 41 42 43 43 43 43 43 43
44 45 46 46 47 47 46 46 46 46 45 45 45 44 44 44 44 43 43 42 42 42 42 42 42 42 43 43 43 43 43 43 43 43 42 42 42 42 41 40 39 38 36 34 32 30 29 29 28 29 30 31 31 32 33 34 35 36 38 39 40 40 40 41 42 42 43 44 44
45 46 46 46 47 47 46 46 45 45 45 44 44 44 43 43 43 43 42 42 42 42 42 42 42 43 43 43 43 43 43 43 43 42 42 41 41 40 40 39 38 37 35 33 30 29 29 29 29 30 31 31 31 32 32 34 35 36 37 38 39 40 40 40 41 42 43 44 44
45 46 46 46 46 46 46 45 44 44 44 43 43 43 43 43 43 43 42 42 42 42 42 42 42 43 43 43 43 43 43 42 42 42 41 40 39 39 38 38 38 37 35 33 32 31 31 31 31 32 32 32 32 32 33 35 36 37 38 39 40 40 41 41 42 42 42 42 42
45 45 45 45 45 45 44 44 43 43 43 43 43 43 43 43 43 43 43 42 42 42 42 42 42 43 43 43 43 43 43 43 42 41 41 40 39 38 38 38 38 38 36 34 33 33 33 33 33 33 33 33 33 34 35 36 37 38 39 40 40 41 41 41 41 41 40 40 40
43 43 43 43 43 43 43 43 43 43 43 43 43 44 44 43 43 43 43 43 43 43 43 43 44 44 44 44 43 43 43 43 42 42 41 40 39 39 39 39 39 39 37 36 35 34 34 34 33 34 34 34 34 35 36 37 38 39 39 40 41 41 41 41 40 39 39 39 39
42 41 42 42 42 42 42 42 42 43 43 43 44 44 45 45 45 44 44 44 44 44 45 45 45 45 45 44 44 44 43 43 43 42 41 41 40 40 40 40 41 40 39 37 36 35 35 35 35 34 35 35 35 36 37 38 38 39 39 40 40 40 40 39 39 38 38 37 38
40 40 40 40 41 41 41 41 42 43 43 44 44 45 45 46 46 46 46 45 45 45 46 46 46 45 45 45 44 44 44 43 43 42 42 41 40 40 40 41 41 41 40 39 37 36 36 36 35 35 35 35 36 36 36 36 37 37 38 39 40 40 39 38 37 37 36 36 36
39 39 39 39 40 40 41 41 42 43 44 45 45 45 46 46 47 47 47 46 45 45 46 46 46 45 45 45 44 44 44 43 43 42 42 41 41 40 40 41 41 42 41 39 38 37 37 36 36 36 35 35 35 35 34 35 36 37 38 38 39 38 38 36 36 35 35 35 34
39 39 39 39 39 40 41 42 42 43 44 45 46 46 46 46 47 47 47 46 45 44 45 45 45 45 44 43 43 43 43 43 42 42 41 41 41 40 40 41 41 42 41 40 39 38 37 37 36 35 35 34 33 32 32 33 35 36 36 37 36 36 36 35 35 34 34 33 32
39 39 39 39 39 40 41 42 43 43 44 45 45 46 46 46 46 46 46 45 44 43 43 43 43 43 43 42 42 42 42 43 42 41 41 41 40 40 40 40 41 41 41 40 39 38 37 36 35 34 33 32 31 30 31 31 32 33 34 34 34 35 35 35 34 34 33 33 32
39 39 39 40 40 40 41 42 43 44 44 45 45 45 45 45 45 45 45 44 43 42 42 42 42 41 41 40 40 40 41 42 42 41 40 40 40 40 40 40 40 41 41 40 39 37 36 35 33 31 30 30 29 28 29 29 30 32 33 33 33 34 34 34 34 33 33 33 33
Wind_Direction
341 339 337 334 331 327 323 318 314 311 307 305 304 303 302 301 300 300 300 299 298 298 297 297 296 296 296 296 296 296 296 296 295 295 295 295 294 294 294 293 292 290 289 288 287 286 284 283 281 281 280 280 280 280 281 280 281 281 281 280 280 281 280 280 279 279 279 278 278
337 336 333 331 328 325 321 317 314 310 307 305 303 302 301 300 299 299 299 298 298 297 296 296 296 296 296 296 295 295 295 295 296 295 295 295 295 295 294 294 293 292 291 291 289 288 286 285 283 282 281 281 281 281 281 282 282 281 281 281 281 281 281 280 280 280 280 280 279
334 332 330 327 325 322 319 316 313 310 307 305 303 301 300 299 299 298 298 298 297 296 296 295 295 295 295 295 295 295 295 295 295 295 295 295 295 295 294 294 294 293 293 293 292 291 290 288 286 285 284 283 283 283 284 285 284 283 282 282 282 281 281 280 281 281 281 280 279
329 328 326 323 321 319 316 315 313 310 308 305 303 301 300 299 298 298 297 297 296 295 295 295 294 294 294 294 294 295 295 295 295 294 294 294 294 294 293 293 293 293 293 294 294 294 293 292 290 288 287 288 288 289 289 290 288 286 284 284 283 282 281 281 282 281 281 280 280
324 323 321 319 317 315 314 313 312 311 309 307 305 302 301 299 298 297 296 295 295 294 294 293 292 292 292 293 294 294 295 295 294 293 293 292 292 291 291 290 291 292 293 294 295 296 296 295 293 292 292 294 295 296 297 296 293 290 289 288 287 285 284 284 284 283 282 282 281
318 318 317 316 315 313 312 312 311 311 310 309 307 305 303 301 299 297 296 295 294 294 293 291 291 291 292 292 293 293 294 293 292 291 290 289 288 288 287 287 288 289 291 292 294 296 297 297 296 296 297 298 300 302 302 301 298 295 294 293 292 290 289 288 288 286 285 284 283
314 314 314 313 312 311 310 310 310 309 309 309 309 308 307 305 301 298 296 295 294 293 292 291 291 291 291 291 291 292 291 291 289 287 286 285 284 284 283 284 285 286 288 290 293 294 296 297 297 298 299 301 302 304 304 303 301 299 298 297 296 295 293 292 291 289 287 286 285
310 310 310 310 309 309 308 308 308 308 308 308 309 310 309 308 305 302 299 297 295 294 293 291 291 291 290 290 290 290 289 288 286 284 282 281 281 280 280 281 282 283 285 287 290 292 294 295 295 297 299 300 302 303 304 303 302 300 299 299 298 297 295 294 293 291 290 288 287
309 309 308 308 307 306 306 306 306 306 307 307 308 309 309 308 307 305 302 300 298 296 294 292 292 291 290 289 289 288 287 285 283 281 280 279 279 279 279 279 280 281 283 285 287 289 291 292 293 294 296 298 300 301 302 302 300 299 299 299 299 298 296 295 294 293 291 289 288
310 309 308 306 305 304 304 303 303 304 305 305 306 307 307 307 307 306 305 303 300 298 296 294 293 291 289 288 288 287 286 284 282 280 279 278 278 278 278 278 279 280 282 284 285 287 288 289 291 293 295 297 298 300 300 299 298 298 298 298 298 297 296 295 294 293 291 290 288
312 310 308 307 305 303 301 300 300 301 302 303 304 305 306 306 306 306 305 304 302 300 298 296 294 291 289 288 288 287 285 283 281 279 278 278 278 278 278 279 279 280 281 283 284 286 287 288 290 292 294 296 297 298 298 298 298 297 297 297 297 296 296 295 294 292 291 289 289
314 312 310 309 307 304 301 299 298 298 300 301 302 303 303 304 304 304 304 303 302 301 300 298 295 292 290 289 288 287 286 284 282 280 279 278 278 278 278 279 279 280 282 283 284 286 287 289 290 292 294 296 297 298 298 299 298 297 297 298 297 296 295 295 294 293 291 290 288
316 314 312 311 308 306 303 301 299 298 298 299 300 300 299 299 300 301 301 301 301 301 300 298 295 293 290 289 288 287 286 284 282 281 279 279 279 279 279 280 280 281 283 284 285 286 288 289 291 293 294 296 297 298 299 299 299 298 298 298 297 296 296 296 295 294 291 289 287
319 317 315 313 310 308 305 304 302 300 299 298 298 297 296 295 295 294 295 296 298 299 299 297 295 293 291 290 288 287 286 284 283 281 280 280 280 280 280 281 282 283 285 286 287 288 289 290 292 293 294 296 297 298 300 300 299 299 298 298 297 297 297 297 296 294 291 289 287
321 320 319 316 313 310 307 306 304 303 301 300 298 297 294 292 291 290 289 290 293 295 296 296 295 294 293 291 289 287 286 284 283 282 282 281 281 281 282 283 284 285 286 287 288 289 290 291 292 293 295 296 297 298 300 300 300 300 300 299 298 298 297 297 295 293 291 289 288
324 323 322 320 316 313 310 307 305 304 303 301 300 298 295 292 289 287 287 287 288 290 292 294 294 295 294 292 290 288 287 285 284 283 283 283 283 283 284 284 285 286 287 288 289 289 290 291 292 293 294 295 296 298 299 300 300 301 301 300 300 299 298 297 295 293 291 289 288
326 326 325 323 321 318 314 311 308 305 304 302 301 299 297 294 291 288 286 285 285 286 288 290 291 292 293 292 291 290 288 287 285 284 284 284 284 284 284 285 285 286 287 287 288 288 289 290 291 292 293 294 295 296 298 299 300 300 301 301 301 300 299 297 295 292 290 288 287
328 328 327 327 326 324 321 317 313 310 306 303 301 300 298 296 294 291 287 285 283 283 284 285 285 286 288 289 289 289 289 288 286 285 284 284 284 284 284 284 285 285 285 286 286 287 287 288 289 289 290 292 293 294 295 297 298 299 300 301 301 300 299 298 296 293 290 288 287
330 330 331 331 331 330 328 325 322 318 313 309 305 302 299 297 295 293 291 288 285 283 282 281 281 281 282 284 285 286 286 286 285 285 284 284 283 283 283 283 283 283 283 283 284 284 285 285 286 287 287 289 290 292 293 295 296 298 299 299 300 300 299 298 297 294 291 288 287
332 333 334 334 334 334 333 332 330 327 323 318 313 308 303 300 297 294 292 291 288 286 283 281 280 279 280 280 281 282 283 283 283 283 283 282 282 282 282 282 282 282 282 281 281 281 282 282 282 283 284 285 287 289 292 294 295 296 297 298 298 299 299 299 297 295 292 289 287
333 334 334 334 335 335 334 334 333 332 330 327 323 318 312 307 302 298 294 292 290 288 286 283 282 281 280 280 281 281 282 282 282 282 282 282 281 281 281 281 281 281 282 282 282 281 281 280 279 279 280 282 284 288 291 293 294 295 295 296 296 297 298 299 298 295 292 290 287
331 332 332 332 332 332 331 331 331 330 330 329 328 325 322 317 312 306 301 296 293 290 288 286 284 283 282 282 281 282 282 282 282 282 282 282 282 281 281 280 279 280 281 283 284 284 283 282 280 278 278 279 282 286 289 292 293 293 294 294 295 296 297 298 298 296 293 291 288
328 328 328 328 328 327 327 327 326 326 326 326 326 325 324 322 319 315 310 305 300 296 292 289 287 285 284 283 283 282 282 282 283 283 283 283 283 283 282 281 279 279 279 280 282 283 284 283 281 279 278 279 282 285 288 290 291 292 292 293 294 295 297 297 297 296 294 292 289
324 324 324 324 324 324 324 324 323 323 323 323 323 322 322 321 320 318 316 313 309 305 300 296 292 289 287 285 284 283 283 283 283 284 284 284 284 283 283 282 281 279 278 278 278 278 279 280 279 278 278 279 282 285 288 289 290 290 290 292 293 295 296 297 297 296 294 292 290
321 321 321 321 321 321 321 322 322 322 321 321 320 320 319 319 318 317 316 314 312 310 306 302 297 294 291 288 286 285 284 283 284 284 285 285 284 284 283 283 282 281 280 279 278 277 277 277 277 277 278 280 283 285 287 288 288 288 290 292 294 295 296 297 296 296 295 294 292
318 319 319 319 319 319 320 320 320 320 320 319 319 319 318 317 316 315 314 313 311 309 307 303 300 297 294 291 290 288 287 286 285 285 285 286 286 285 285 285 284 284 283 282 281 279 278 277 277 278 280 282 283 284 286 286 287 289 291 293 295 296 296 296 296 296 295 295 294
316 317 317 317 317 317 318 318 318 318 318 318 318 317 317 316 315 314 313 312 310 308 306 303 301 298 296 295 293 292 291 290 289 289 289 289 289 289 288 288 287 286 286 285 284 282 280 279 280 281 283 283 284 284 285 287 289 291 293 295 296 296 296 296 296 295 295 295 296
314 315 315 315 316 316 316 316 317 317 317 317 317 316 316 315 314 313 312 311 310 308 306 304 302 301 299 298 297 296 295 294 294 294 294 293 293 293 292 291 290 289 288 288 286 285 283 283 283 283 284 284 284 285 287 289 292 294 295 295 296 296 296 295 295 295 295 295 296
313 314 314 314 315 315 315 315 316 316 316 316 316 315 315 314 313 312 311 310 309 308 307 306 305 303 302 301 300 299 298 298 297 297 297 297 297 296 295 294 293 292 290 290 289 287 287 286 286 286 286 286 287 289 290 292 293 293 293 293 293 294 294 293 293 293 294 294 294
312 313 314 314 314 314 315 315 316 316 316 315 315 314 314 313 312 311 311 310 309 308 308 307 306 305 304 303 303 302 301 300 300 300 300 300 299 298 298 297 295 294 293 292 291 290 289 289 289 289 290 291 292 292 291 292 292 291 290 290 290 290 290 290 290 291 292 292 292
313 313 314 314 314 315 315 315 315 315 315 315 314 313 313 312 311 311 310 310 309 309 308 308 307 306 305 305 304 304 303 303 302 302 302 301 301 300 299 298 297 295 294 294 294 293 293 293 293 294 295 295 294 292 290 290 290 289 288 288 288 287 287 287 287 288 289 290 290
314 314 315 315 315 315 315 315 315 315 314 314 313 312 312 312 311 311 311 311 310 310 309 309 308 308 307 306 306 305 305 304 304 303 303 302 302 301 300 299 297 296 295 296 296 297 296 296 297 298 298 297 295 292 290 289 288 288 287 286 285 284 284 283 284 285 286 288 288
315 315 315 315 315 315 315 315 315 314 314 313 313 313 312 312 312 312 312 312 312 311 311 310 310 309 308 307 307 306 305 305 304 303 303 303 302 301 300 298 297 296 296 297 298 299 299 300 301 301 300 298 295 292 290 288 287 286 284 283 282 282 281 282 283 284 286 287 287
316 316 316 315 315 315 315 315 315 314 314 314 313 313 313 313 313 314 314 314 313 312 312 311 310 309 309 308 307 306 306 305 304 303 303 302 301 300 299 298 296 296 297 298 299 300 301 302 303 302 301 298 295 292 290 288 286 284 283 282 282 282 282 283 284 285 286 286 285
317 316 316 315 315 315 315 315 315 315 314 314 314 315 315 315 315 315 315 315 314 313 312 312 311 310 309 308 307 306 305 304 304 303 302 301 300 299 298 297 296 296 296 298 299 301 301 302 302 301 300 298 295 292 290 288 287 285 284 284 284 284 284 285 286 287 287 286 284
317 316 316 315 315 315 315 315 315 315 315 315 315 315 316 316 316 316 315 315 315 314 313 312 312 310 309 308 307 306 305 304 303 302 301 300 299 298 297 296 296 296 296 297 299 300 300 300 300 299 298 296 293 291 290 289 287 286 286 285 285 285 286 286 287 287 286 285 284
317 317 316 316 316 316 316 316 316 316 315 315 316 316 316 316 316 316 316 316 315 315 314 313 312 311 310 308 307 306 304 303 302 300 300 299 298 297 296 296 296 296 296 297 298 298 299 299 298 297 296 294 292 291 290 288 287 286 285 284 284 285 286 287 287 287 286 286 285
318 317 316 316 316 316 316 316 316 316 316 316 316 316 316 316 316 316 316 316 316 316 315 314 313 311 310 309 307 306 304 302 301 300 298 297 297 296 296 295 295 295 295 296 297 297 297 297 296 296 295 293 291 290 288 286 285 283 283 283 284 285 287 287 288 288 288 287 287
317 317 317 317 316 316 316 316 316 316 316 316 316 316 316 316 316 316 317 317 316 316 315 314 312 311 310 309 307 306 304 303 301 300 298 297 296 296 295 294 294 294 295 295 295 295 295 295 295 294 293 292 290 288 286 285 284 284 284 285 286 288 289 290 290 290 290 290 289
317 317 317 317 317 317 317 316 316 316 316 316 316 317 317 317 317 317 317 317 316 316 314 313 312 311 310 309 308 306 305 304 303 301 300 298 297 296 295 294 293 293 293 293 293 293 293 293 293 292 292 291 289 288 287 286 286 287 288 289 289 290 291 291 291 291 292 292 292
317 317 317 317 317 317 317 317 317 317 317 317 317 317 317 317 317 317 317 317 316 315 314 313 312 311 310 309 308 307 306 305 304 303 302 300 299 297 295 294 293 293 293 292 292 292 292 292 292 292 291 291 291 289 289 289 289 289 289 289 289 289 289 290 291 292 293 293 293
Height
1513 1512 1511 1510 1509 1509 1507 1506 1505 1504 1504 1503 1502 1501 1500 1499 1498 1497 1497 1496 1495 1494 1493 1493 1492 1492 1491 1490 1489 1489 1488 1487 1486 1485 1484 1484 1483 1482 1481 1481 1480 1479 1479 1478 1477 1477 1476 1475 1474 1474 1473 1472 1472 1472 1471 1471 1470 1470 1469 1469 1468 1468 1468 1467 1467 1467 1467 1467 1467
1512 1511 1510 1509 1508 1507 1506 1505 1504 1503 1502 1501 1500 1499 1499 1498 1496 1495 1495 1494 1494 1493 1492 1491 1491 1490 1489 1489 1488 1487 1486 1485 1484 1484 1483 1482 1481 1480 1479 1479 1478 1477 1477 1476 1475 1474 1474 1473 1472 1471 1471 1470 1470 1469 1469 1469 1469 1468 1467 1466 1466 1465 1465 1464 1464 1464 1464 1464 1464
1511 1510 1509 1508 1507 1506 1504 1504 1503 1502 1501 1499 1499 1498 1497 1496 1495 1494 1493 1493 1492 1491 1490 1489 1489 1488 1488 1487 1486 1485 1484 1484 1483 1482 1481 1480 1479 1479 1478 1477 1476 1475 1475 1474 1473 1473 1472 1471 1470 1469 1469 1468 1468 1467 1467 1466 1466 1465 1464 1464 1464 1463 1463 1462 1461 1461 1461 1461 1461
1510 1509 1508 1507 1505 1504 1503 1502 1501 1500 1499 1498 1497 1496 1495 1494 1493 1492 1492 1491 1490 1489 1489 1488 1487 1487 1486 1485 1484 1484 1483 1482 1481 1480 1479 1479 1478 1477 1476 1476 1475 1474 1473 1472 1472 1471 1470 1469 1468 1467 1466 1466 1465 1464 1464 1464 1464 1463 1462 1461 1461 1461 1460 1459 1459 1459 1459 1458 1458
1509 1508 1506 1505 1504 1503 1502 1501 1499 1499 1498 1497 1495 1494 1494 1493 1492 1491 1490 1489 1489 1488 1487 1486 1485 1485 1484 1484 1483 1482 1481 1481 1480 1479 1478 1477 1477 1476 1475 1474 1473 1472 1472 1471 1470 1469 1468 1467 1466 1465 1464 1464 1463 1462 1462 1462 1461 1460 1459 1459 1458 1458 1457 1456 1456 1456 1456 1455 1455
1507 1506 1505 1504 1503 1501 1500 1499 1498 1497 1496 1495 1494 1493 1492 1491 1490 1489 1488 1487 1487 1486 1486 1485 1484 1483 1482 1482 1481 1480 1479 1479 1478 1477 1476 1475 1475 1474 1474 1473 1472 1471 1470 1469 1468 1467 1466 1465 1464 1463 1462 1461 1461 1460 1459 1459 1459 1458 1457 1456 1455 1455 1454 1454 1453 1453 1453 1452 1452
1505 1504 1504 1502 1501 1500 1499 1497 1496 1495 1494 1493 1492 1491 1490 1489 1489 1488 1486 1486 1485 1484 1484 1483 1482 1481 1480 1479 1479 1478 1477 1477 1476 1475 1474 1474 1473 1473 1472 1471 1470 1469 1469 1468 1467 1465 1464 1464 1462 1461 1460 1460 1459 1458 1458 1457 1456 1455 1454 1454 1453 1453 1452 1451 1451 1450 1450 1449 1449
1503 1502 1501 1500 1499 1498 1497 1496 1494 1493 1492 1491 1490 1489 1489 1488 1487 1486 1485 1484 1483 1483 1482 1481 1480 1479 1479 1478 1477 1476 1475 1475 1474 1473 1473 1472 1471 1470 1470 1469 1468 1467 1467 1466 1465 1464 1463 1462 1460 1459 1459 1458 1457 1456 1455 1455 1454 1453 1452 1451 1451 1450 1449 1449 1448 1448 1447 1446 1446
1501 1500 1499 1498 1497 1496 1495 1494 1493 1491 1490 1489 1489 1488 1487 1486 1485 1484 1483 1482 1481 1481 1480 1479 1479 1478 1477 1476 1475 1474 1473 1473 1472 1471 1470 1470 1469 1468 1468 1467 1466 1465 1464 1464 1463 1462 1461 1459 1459 1458 1457 1456 1455 1454 1453 1453 1452 1450 1449 1449 1448 1448 1447 1446 1445 1445 1444 1443 1443
1499 1498 1497 1496 1495 1494 1493 1491 1490 1489 1488 1487 1486 1486 1485 1484 1483 1482 1481 1480 1479 1479 1478 1477 1477 1476 1475 1474 1473 1472 1471 1470 1470 1469 1468 1467 1467 1466 1465 1465 1464 1463 1462 1462 1461 1459 1459 1457 1456 1455 1454 1454 1453 1452 1451 1450 1449 1448 1447 1446 1446 1445 1444 1444 1443 1442 1441 1440 1439
1497 1496 1494 1494 1492 1491 1490 1489 1488 1487 1486 1485 1484 1484 1483 1482 1481 1480 1479 1479 1478 1477 1476 1475 1475 1474 1473 1472 1471 1470 1469 1469 1468 1467 1466 1465 1464 1464 1463 1462 1462 1461 1460 1459 1458 1457 1456 1455 1454 1453 1452 1451 1450 1449 1449 1448 1447 1446 1444 1444 1443 1442 1441 1441 1440 1439 1438 1437 1436
1494 1493 1492 1491 1490 1489 1488 1487 1485 1484 1484 1483 1482 1481 1481 1480 1479 1479 1478 1476 1475 1475 1474 1474 1473 1472 1471 1470 1469 1469 1468 1467 1465 1464 1464 1463 1462 1461 1461 1460 1459 1458 1458 1457 1456 1455 1454 1452 1451 1450 1449 1449 1448 1447 1446 1445 1444 1443 1442 1441 1440 1439 1438 1438 1437 1436 1436 1434 1434
1493 1491 1490 1489 1488 1487 1485 1484 1483 1482 1481 1480 1479 1479 1479 1478 1477 1477 1475 1474 1474 1473 1472 1471 1471 1470 1469 1468 1467 1466 1465 1464 1463 1462 1461 1460 1460 1459 1458 1458 1457 1456 1455 1454 1453 1452 1451 1450 1449 1448 1447 1446 1445 1444 1444 1442 1441 1440 1439 1438 1437 1436 1435 1434 1434 1434 1433 1432 1431
1490 1489 1488 1487 1486 1485 1484 1482 1481 1480 1479 1478 1477 1477 1476 1475 1475 1474 1474 1472 1471 1471 1470 1469 1469 1468 1467 1466 1465 1464 1463 1462 1461 1460 1459 1458 1458 1457 1456 1455 1454 1454 1453 1452 1451 1450 1449 1447 1446 1445 1444 1443 1442 1442 1441 1440 1439 1437 1436 1435 1434 1433 1432 1432 1431 1430 1430 1429 1427
1488 1487 1486 1485 1484 1483 1481 1480 1479 1478 1477 1476 1475 1474 1474 1473 1473 1472 1471 1470 1469 1469 1468 1467 1466 1465 1465 1464 1463 1462 1461 1460 1459 1458 1457 1456 1455 1454 1454 1453 1452 1451 1450 1449 1448 1447 1446 1445 1444 1443 1441 1440 1439 1439 1438 1437 1436 1434 1434 1433 1431 1430 1429 1429 1428 1427 1426 1425 1424
1486 1485 1484 1483 1481 1480 1479 1478 1477 1476 1475 1474 1473 1472 1471 1470 1470 1469 1469 1468 1467 1466 1465 1464 1464 1463 1462 1462 1461 1459 1459 1457 1456 1455 1454 1453 1452 1452 1451 1450 1449 1448 1448 1446 1445 1444 1443 1442 1441 1440 1439 1437 1436 1435 1435 1434 1433 1431 1430 1429 1429 1428 1427 1426 1425 1424 1423 1422 1421
1484 1483 1482 1481 1479 1478 1477 1476 1474 1474 1472 1471 1471 1470 1469 1468 1467 1466 1466 1465 1464 1464 1463 1462 1462 1461 1460 1459 1458 1457 1456 1455 1454 1453 1452 1451 1450 1449 1448 1447 1447 1446 1445 1444 1442 1441 1440 1439 1438 1437 1435 1434 1433 1432 1431 1430 1429 1428 1427 1426 1425 1424 1424 1423 1422 1421 1420 1419 1417
1483 1481 1480 1479 1477 1476 1475 1474 1472 1471 1470 1469 1468 1467 1467 1466 1464 1464 1463 1462 1461 1460 1460 1459 1459 1458 1457 1456 1455 1454 1454 1452 1451 1450 1449 1448 1447 1446 1445 1444 1444 1443 1442 1441 1439 1438 1437 1436 1435 1434 1432 1431 1430 1429 1428 1427 1426 1425 1424 1423 1422 1421 1420 1419 1419 1418 1416 1415 1414
1481 1480 1479 1477 1476 1474 1473 1472 1470 1469 1468 1467 1466 1465 1464 1463 1462 1461 1460 1459 1459 1458 1457 1455 1455 1454 1454 1453 1452 1451 1450 1449 1448 1447 1446 1445 1444 1443 1442 1441 1440 1439 1439 1437 1436 1435 1434 1433 1432 1430 1429 1428 1427 1425 1424 1424 1422 1421 1420 1419 1419 1418 1417 1416 1415 1414 1413 1412 1410
1480 1478 1477 1476 1474 1473 1472 1470 1469 1468 1466 1465 1464 1463 1462 1461 1460 1459 1458 1457 1456 1455 1454 1452 1451 1451 1450 1449 1449 1448 1447 1446 1445 1444 1442 1442 1441 1440 1439 1438 1437 1436 1435 1434 1433 1431 1430 1429 1429 1427 1426 1425 1423 1422 1421 1420 1419 1418 1417 1416 1415 1414 1413 1412 1411 1410 1409 1408 1407
1479 1477 1476 1474 1473 1472 1470 1469 1468 1466 1465 1463 1462 1461 1459 1458 1457 1456 1455 1454 1454 1452 1451 1450 1449 1448 1447 1446 1445 1444 1443 1443 1441 1440 1439 1438 1437 1436 1435 1434 1433 1431 1430 1429 1429 1428 1427 1426 1425 1424 1423 1422 1420 1419 1418 1417 1415 1414 1413 1412 1411 1410 1409 1408 1408 1407 1405 1404 1404
1477 1476 1474 1473 1472 1470 1469 1468 1466 1465 1463 1462 1460 1459 1458 1456 1455 1454 1453 1452 1450 1449 1448 1447 1446 1445 1444 1443 1442 1441 1440 1439 1438 1436 1435 1434 1433 1432 1430 1429 1428 1427 1426 1425 1424 1424 1423 1422 1421 1420 1419 1418 1417 1415 1414 1413 1412 1410 1409 1408 1407 1406 1405 1404 1404 1403 1402 1401 1400
1475 1474 1473 1471 1470 1469 1467 1466 1464 1463 1461 1460 1459 1457 1455 1454 1453 1451 1450 1449 1448 1447 1445 1444 1443 1442 1441 1439 1438 1437 1436 1435 1434 1433 1432 1430 1429 1428 1426 1425 1424 1423 1422 1421 1420 1420 1419 1418 1417 1416 1415 1414 1413 1411 1410 1409 1408 1407 1405 1404 1403 1402 1401 1400 1399 1399 1398 1397 1396
1474 1472 1471 1469 1468 1467 1465 1464 1462 1461 1459 1458 1456 1455 1453 1452 1450 1449 1448 1446 1445 1444 1442 1441 1440 1439 1437 1436 1434 1433 1432 1431 1429 1428 1427 1426 1425 1424 1422 1421 1419 1418 1417 1417 1416 1415 1414 1414 1412 1411 1410 1409 1408 1407 1406 1405 1404 1403 1402 1400 1399 1398 1397 1396 1395 1394 1394 1393 1392
1472 1470 1469 1468 1466 1464 1463 1462 1460 1459 1457 1455 1454 1452 1451 1449 1448 1446 1445 1444 1442 1441 1439 1438 1436 1435 1434 1432 1431 1429 1428 1427 1425 1424 1423 1421 1420 1419 1418 1416 1415 1414 1412 1412 1411 1411 1410 1409 1408 1407 1405 1404 1404 1403 1402 1401 1400 1399 1398 1396 1395 1394 1392 1391 1390 1390 1389 1389 1388
1470 1468 1467 1465 1464 1462 1461 1459 1458 1456 1454 1453 1451 1450 1448 1447 1445 1444 1442 1440 1439 1438 1436 1434 1433 1431 1430 1428 1427 1425 1424 1423 1421 1420 1418 1417 1415 1414 1413 1412 1410 1409 1408 1407 1407 1407 1406 1405 1404 1402 1401 1400 1399 1398 1397 1396 1395 1394 1393 1392 1390 1389 1388 1387 1386 1385 1384 1384 1383
1468 1466 1464 1463 1462 1460 1459 1457 1455 1454 1452 1450 1449 1447 1445 1444 1442 1441 1439 1437 1436 1434 1433 1431 1429 1428 1426 1425 1423 1422 1420 1419 1418 1416 1414 1413 1411 1410 1409 1407 1406 1405 1404 1403 1403 1402 1402 1401 1400 1398 1397 1395 1394 1393 1392 1391 1390 1389 1389 1387 1386 1384 1383 1382 1381 1380 1380 1379 1379
1465 1464 1462 1460 1459 1458 1456 1454 1453 1451 1449 1448 1446 1444 1442 1441 1439 1438 1436 1434 1433 1431 1429 1428 1426 1425 1423 1421 1420 1419 1417 1415 1414 1413 1411 1409 1408 1406 1405 1404 1402 1401 1400 1399 1399 1398 1397 1397 1396 1395 1394 1392 1390 1389 1388 1387 1386 1385 1384 1383 1381 1380 1379 1378 1377 1376 1376 1375 1375
1463 1461 1459 1458 1456 1455 1453 1452 1450 1448 1446 1444 1443 1441 1439 1438 1436 1434 1433 1431 1429 1428 1426 1424 1423 1421 1419 1418 1416 1415 1413 1412 1410 1409 1407 1406 1404 1403 1401 1400 1399 1397 1397 1396 1395 1394 1394 1393 1392 1391 1391 1390 1389 1387 1385 1384 1383 1382 1381 1379 1378 1377 1375 1374 1373 1372 1372 1372 1371
1460 1459 1457 1455 1453 1452 1450 1449 1447 1445 1443 1441 1440 1438 1436 1434 1433 1431 1429 1428 1426 1424 1422 1421 1419 1417 1416 1414 1413 1411 1409 1408 1407 1405 1404 1402 1401 1399 1398 1397 1395 1394 1393 1393 1392 1391 1390 1389 1389 1389 1388 1388 1386 1385 1383 1382 1380 1379 1378 1377 1375 1374 1373 1371 1370 1369 1369 1368 1368
1458 1456 1454 1452 1450 1449 1447 1445 1444 1442 1440 1438 1436 1434 1433 1431 1429 1428 1426 1424 1422 1421 1419 1418 1416 1414 1412 1411 1409 1408 1406 1404 1403 1402 1400 1399 1397 1396 1395 1394 1392 1391 1390 1390 1389 1388 1388 1387 1386 1386 1385 1384 1383 1382 1380 1379 1377 1376 1375 1374 1373 1372 1371 1369 1368 1367 1366 1365 1364
1455 1453 1451 1449 1447 1445 1444 1442 1440 1439 1437 1435 1433 1431 1429 1428 1426 1424 1423 1421 1419 1418 1416 1414 1413 1411 1409 1408 1406 1404 1403 1401 1400 1399 1397 1396 1394 1393 1391 1390 1389 1388 1388 1387 1386 1386 1385 1384 1384 1383 1382 1381 1380 1379 1377 1376 1374 1373 1372 1371 1370 1369 1368 1368 1367 1365 1364 1363 1362
1452 1450 1448 1446 1444 1442 1440 1439 1437 1435 1433 1431 1430 1428 1426 1424 1423 1421 1420 1419 1417 1415 1413 1411 1409 1408 1406 1404 1403 1401 1399 1398 1397 1395 1394 1393 1392 1390 1389 1387 1386 1385 1385 1384 1384 1383 1382 1381 1380 1379 1379 1378 1377 1376 1374 1373 1371 1370 1369 1368 1367 1366 1365 1364 1364 1363 1361 1360 1359
1449 1447 1444 1443 1441 1439 1437 1435 1434 1432 1430 1428 1427 1425 1424 1422 1420 1418 1417 1415 1414 1412 1410 1409 1407 1405 1403 1402 1400 1398 1396 1395 1394 1392 1391 1390 1389 1387 1386 1384 1383 1382 1382 1382 1381 1380 1379 1378 1377 1376 1376 1375 1374 1372 1371 1369 1368 1367 1365 1364 1363 1362 1362 1361 1360 1359 1358 1357 1356
1445 1443 1441 1439 1438 1436 1434 1432 1430 1429 1427 1425 1424 1422 1421 1419 1418 1416 1414 1412 1411 1409 1407 1406 1404 1402 1400 1399 1397 1395 1394 1392 1390 1389 1388 1387 1385 1384 1383 1381 1380 1379 1379 1379 1378 1377 1376 1375 1374 1374 1373 1372 1370 1369 1367 1366 1364 1363 1361 1360 1359 1358 1357 1357 1356 1355 1354 1354 1353
1443 1440 1438 1436 1434 1433 1431 1429 1428 1426 1424 1423 1421 1419 1418 1416 1414 1413 1411 1410 1408 1406 1404 1402 1400 1399 1397 1395 1394 1392 1391 1389 1387 1386 1385 1384 1382 1381 1379 1378 1377 1376 1376 1375 1375 1374 1373 1372 1371 1371 1370 1369 1367 1365 1364 1362 1360 1359 1357 1356 1355 1354 1353 1353 1352 1351 1351 1350 1349
1440 1438 1436 1434 1432 1430 1429 1427 1425 1424 1422 1420 1419 1417 1415 1413 1411 1410 1408 1407 1404 1402 1400 1399 1397 1395 1394 1392 1390 1389 1387 1386 1384 1383 1381 1380 1379 1378 1376 1374 1373 1372 1372 1372 1371 1371 1370 1369 1368 1367 1366 1365 1363 1362 1360 1359 1357 1355 1354 1352 1351 1350 1349 1349 1349 1348 1347 1346 1346
1438 1436 1434 1432 1430 1428 1427 1425 1423 1421 1419 1418 1416 1414 1413 1411 1409 1407 1405 1404 1402 1399 1397 1395 1394 1392 1390 1389 1387 1385 1384 1382 1381 1379 1378 1377 1376 1374 1373 1371 1369 1369 1368 1368 1368 1367 1366 1366 1365 1364 1363 1362 1360 1359 1357 1355 1354 1352 1350 1349 1348 1347 1346 1345 1345 1344 1343 1343 1342
1435 1434 1432 1430 1428 1426 1424 1423 1421 1419 1417 1415 1413 1411 1410 1408 1406 1404 1403 1401 1399 1397 1394 1392 1390 1389 1387 1385 1384 1381 1379 1379 1378 1376 1375 1374 1372 1371 1370 1368 1366 1365 1365 1365 1364 1364 1363 1362 1361 1361 1360 1359 1357 1355 1354 1352 1350 1349 1347 1346 1344 1343 1342 1342 1341 1340 1340 1339 1339
1433 1431 1429 1428 1426 1424 1422 1420 1418 1417 1415 1413 1411 1409 1407 1405 1403 1401 1400 1398 1396 1394 1392 1390 1387 1385 1384 1382 1380 1378 1376 1374 1374 1373 1372 1370 1369 1368 1367 1365 1364 1362 1361 1361 1361 1360 1360 1359 1358 1357 1356 1355 1354 1352 1350 1349 1347 1345 1344 1343 1342 1340 1339 1338 1338 1337 1336 1335 1335
1430 1429 1427 1425 1424 1422 1420 1418 1416 1414 1412 1411 1409 1407 1404 1403 1401 1399 1397 1395 1393 1392 1389 1387 1385 1383 1381 1380 1378 1376 1373 1371 1370 1369 1369 1368 1366 1365 1364 1362 1361 1359 1358 1358 1358 1357 1356 1356 1355 1354 1353 1352 1350 1349 1348 1346 1344 1343 1341 1340 1339 1339 1337 1336 1335 1334 1333 1332 1331